Location: Pine Mountain Observatory
(43.7910°N, 120.9377°W)
Time: 07:09:30
(UTC-07:00)

APEX - Visible Passes

Search period start: 21 October 2017 00:00
Search period end: 31 October 2017 00:00
Orbit: 336 x 1181 km, 69.9° (Epoch: 21 October)

Date Brightness Start Highest point End Pass type
(mag) Time Alt. Az. Time Alt. Az. Time Alt. Az.
21 Oct 5.8 05:01:13 16° SSE 05:01:13 16° SSE 05:02:16 10° SSE visible
21 Oct 3.1 19:33:33 10° SW 19:36:35 56° WNW 19:38:31 17° NNE visible
22 Oct 2.6 18:53:20 10° SSW 18:56:22 53° ESE 18:59:05 10° NE visible
23 Oct 5.5 19:56:46 10° W 19:58:22 14° NW 19:59:55 10° NNW visible
24 Oct 4.5 19:15:22 10° WSW 19:17:58 28° WNW 19:20:26 10° N visible
25 Oct 2.7 18:34:42 10° SSW 18:37:40 71° WNW 18:40:24 10° NNE visible
27 Oct 5.3 18:57:25 10° W 18:59:17 16° NW 19:01:06 10° NNW visible
